NKS121 MUCL-MKJS

Flight info

Callsign NKS121
Flight time 0h 49m
Altitude 27000
Route YANTE DCT UDNET DCT IBSEN/N0385F230 G442 ADSEL OMAXI7
Aircraft A320/M-SDE3FGHIRWY/LB1

Departure

Time 2026-05-04 20:01
Airport Vilo Acuña International Airport (MUCL)

Arrival

Time 2026-05-04 20:50
Airport Sangster International Airport (MKJS)
Time Latitude Longitude Altitude Speed Heading
2026-05-04 19:28 21.62256 -81.55404 23 ft 0 kts 248°
2026-05-04 19:53 21.62255 -81.55406 23 ft 2 kts 249°
2026-05-04 19:53 21.62247 -81.55431 22 ft 4 kts 242°
2026-05-04 19:53 21.62225 -81.55441 21 ft 3 kts 190°
2026-05-04 19:54 21.62227 -81.55441 21 ft 1 kts 188°
2026-05-04 19:57 21.62225 -81.55441 21 ft 1 kts 188°
2026-05-04 19:57 21.62204 -81.55444 21 ft 5 kts 188°
2026-05-04 19:57 21.62166 -81.55460 22 ft 7 kts 206°
2026-05-04 19:58 21.62111 -81.55490 20 ft 10 kts 206°
2026-05-04 19:58 21.62096 -81.55555 19 ft 12 kts 296°
2026-05-04 19:58 21.62138 -81.55650 17 ft 16 kts 295°
2026-05-04 19:58 21.62192 -81.55756 19 ft 17 kts 315°
2026-05-04 19:59 21.62215 -81.55826 20 ft 7 kts 184°
2026-05-04 19:59 21.62186 -81.55788 19 ft 0 kts 117°
2026-05-04 20:00 21.62183 -81.55781 19 ft 3 kts 117°
2026-05-04 20:00 21.62157 -81.55727 19 ft 28 kts 117°
2026-05-04 20:00 21.61927 -81.55228 20 ft 116 kts 116°
2026-05-04 20:00 21.61453 -81.54269 228 ft 160 kts 120°
2026-05-04 20:01 21.60920 -81.53189 996 ft 167 kts 119°
2026-05-04 20:01 21.60399 -81.52066 1695 ft 168 kts 123°
2026-05-04 20:01 21.59513 -81.51209 1986 ft 182 kts 155°
2026-05-04 20:01 21.58322 -81.50533 2199 ft 205 kts 153°
2026-05-04 20:02 21.56992 -81.49739 2451 ft 231 kts 152°
2026-05-04 20:02 21.55517 -81.48847 2825 ft 254 kts 152°
2026-05-04 20:02 21.53940 -81.47891 3529 ft 264 kts 152°
2026-05-04 20:02 21.52325 -81.46913 4375 ft 268 kts 152°
2026-05-04 20:03 21.50704 -81.45930 5198 ft 273 kts 152°
2026-05-04 20:03 21.49037 -81.44921 6004 ft 277 kts 152°
2026-05-04 20:03 21.47342 -81.43894 6808 ft 281 kts 152°
2026-05-04 20:03 21.45626 -81.42855 7590 ft 285 kts 152°
2026-05-04 20:04 21.43885 -81.41801 8346 ft 289 kts 152°
2026-05-04 20:04 21.42122 -81.40734 9070 ft 293 kts 150°
2026-05-04 20:04 21.40486 -81.39400 9771 ft 298 kts 136°
2026-05-04 20:04 21.39165 -81.37656 10348 ft 308 kts 126°
2026-05-04 20:05 21.37874 -81.35712 10502 ft 331 kts 126°
2026-05-04 20:05 21.36498 -81.33647 10810 ft 346 kts 126°
2026-05-04 20:05 21.35065 -81.31548 11377 ft 351 kts 131°
2026-05-04 20:05 21.33194 -81.29876 11952 ft 353 kts 153°
2026-05-04 20:06 21.30875 -81.29056 12536 ft 354 kts 174°
2026-05-04 20:06 21.28436 -81.29204 13113 ft 353 kts 196°
2026-05-04 20:06 21.26108 -81.30056 13699 ft 355 kts 199°
2026-05-04 20:06 21.23646 -81.30392 14263 ft 362 kts 178°
2026-05-04 20:07 21.21179 -81.29746 14827 ft 371 kts 157°
2026-05-04 20:07 21.19056 -81.28196 15445 ft 379 kts 136°
2026-05-04 20:07 21.17488 -81.25920 16021 ft 384 kts 120°
2026-05-04 20:07 21.16216 -81.23387 16577 ft 388 kts 117°
2026-05-04 20:08 21.15192 -81.20690 17109 ft 393 kts 108°
2026-05-04 20:08 21.14500 -81.17829 17623 ft 399 kts 104°
2026-05-04 20:08 21.13869 -81.14927 18128 ft 402 kts 103°
2026-05-04 20:08 21.13235 -81.11997 18595 ft 406 kts 103°
2026-05-04 20:09 21.12598 -81.09044 19089 ft 408 kts 104°
2026-05-04 20:09 21.11951 -81.06068 19524 ft 412 kts 103°
2026-05-04 20:09 21.11296 -81.03069 19988 ft 417 kts 103°
2026-05-04 20:09 21.10630 -81.00029 20473 ft 420 kts 103°
2026-05-04 20:10 21.09958 -80.96978 20907 ft 422 kts 103°
2026-05-04 20:10 21.09225 -80.93927 21327 ft 425 kts 110°
2026-05-04 20:10 21.07941 -80.91079 21738 ft 426 kts 124°
2026-05-04 20:10 21.06130 -80.88564 22140 ft 427 kts 134°
2026-05-04 20:11 21.04129 -80.86195 22531 ft 430 kts 134°
2026-05-04 20:11 21.02117 -80.83815 22914 ft 433 kts 134°
2026-05-04 20:11 21.00092 -80.81412 23286 ft 436 kts 133°
2026-05-04 20:11 20.98062 -80.78993 23655 ft 438 kts 133°
2026-05-04 20:12 20.96017 -80.76552 23996 ft 441 kts 133°
2026-05-04 20:12 20.93964 -80.74103 24333 ft 444 kts 133°
2026-05-04 20:12 20.91896 -80.71636 24687 ft 446 kts 133°
2026-05-04 20:12 20.89811 -80.69156 25042 ft 448 kts 134°
2026-05-04 20:13 20.87719 -80.66667 25386 ft 451 kts 133°
2026-05-04 20:13 20.85642 -80.64190 25719 ft 453 kts 134°
2026-05-04 20:13 20.83531 -80.61676 26051 ft 456 kts 134°
2026-05-04 20:13 20.81409 -80.59155 26383 ft 458 kts 134°
2026-05-04 20:14 20.79272 -80.56617 26697 ft 460 kts 134°
2026-05-04 20:14 20.77126 -80.54067 26944 ft 462 kts 134°
2026-05-04 20:14 20.74999 -80.51537 27006 ft 452 kts 134°
2026-05-04 20:14 20.72909 -80.49054 27019 ft 448 kts 134°
2026-05-04 20:15 20.70825 -80.46583 27017 ft 446 kts 134°
2026-05-04 20:15 20.68754 -80.44128 27017 ft 445 kts 134°
2026-05-04 20:15 20.66679 -80.41672 27017 ft 445 kts 134°
2026-05-04 20:15 20.64605 -80.39221 27019 ft 445 kts 134°
2026-05-04 20:16 20.62528 -80.36766 27016 ft 445 kts 134°
2026-05-04 20:16 20.60453 -80.34313 27018 ft 445 kts 134°
2026-05-04 20:16 20.58379 -80.31858 27017 ft 445 kts 134°
2026-05-04 20:16 20.56308 -80.29408 27019 ft 445 kts 134°
2026-05-04 20:17 20.54235 -80.26959 27020 ft 445 kts 134°
2026-05-04 20:17 20.52160 -80.24513 27021 ft 445 kts 134°
2026-05-04 20:17 20.50080 -80.22068 27022 ft 445 kts 134°
2026-05-04 20:17 20.47999 -80.19632 27023 ft 445 kts 134°
2026-05-04 20:18 20.45911 -80.17197 27024 ft 444 kts 134°
2026-05-04 20:18 20.43822 -80.14765 27026 ft 444 kts 134°
2026-05-04 20:18 20.41739 -80.12335 27027 ft 444 kts 134°
2026-05-04 20:18 20.39653 -80.09902 27028 ft 444 kts 134°
2026-05-04 20:19 20.37567 -80.07469 27028 ft 444 kts 134°
2026-05-04 20:19 20.35512 -80.05077 27029 ft 444 kts 134°
2026-05-04 20:19 20.33426 -80.02653 27030 ft 444 kts 134°
2026-05-04 20:19 20.31340 -80.00225 27029 ft 444 kts 134°
2026-05-04 20:20 20.29257 -79.97794 27032 ft 444 kts 134°
2026-05-04 20:20 20.27173 -79.95361 27035 ft 444 kts 134°
2026-05-04 20:20 20.25090 -79.92939 27036 ft 443 kts 134°
2026-05-04 20:20 20.23007 -79.90517 27036 ft 443 kts 134°
2026-05-04 20:21 20.20927 -79.88098 27036 ft 443 kts 134°
2026-05-04 20:21 20.18846 -79.85676 27037 ft 443 kts 134°
2026-05-04 20:21 20.14680 -79.80839 27036 ft 443 kts 134°
2026-05-04 20:22 20.12593 -79.78424 27043 ft 443 kts 134°
2026-05-04 20:22 20.10508 -79.76011 27063 ft 443 kts 134°
2026-05-04 20:22 20.08423 -79.73597 27054 ft 443 kts 134°
2026-05-04 20:22 20.06338 -79.71180 27050 ft 443 kts 134°
2026-05-04 20:23 20.04250 -79.68758 27048 ft 443 kts 134°
2026-05-04 20:23 20.02168 -79.66343 27045 ft 443 kts 134°
2026-05-04 20:23 20.00108 -79.63959 27045 ft 443 kts 134°
2026-05-04 20:23 19.98023 -79.61547 27043 ft 443 kts 134°
2026-05-04 20:24 19.95941 -79.59133 27041 ft 443 kts 134°
2026-05-04 20:24 19.93866 -79.56711 27040 ft 442 kts 134°
2026-05-04 20:24 19.91788 -79.54281 27040 ft 442 kts 134°
2026-05-04 20:24 19.89715 -79.51862 27040 ft 442 kts 134°
2026-05-04 20:25 19.87643 -79.49448 27038 ft 442 kts 134°
2026-05-04 20:25 19.85564 -79.47041 27038 ft 442 kts 134°
2026-05-04 20:25 19.83483 -79.44643 27039 ft 442 kts 135°
2026-05-04 20:25 19.81406 -79.42252 27041 ft 442 kts 134°
2026-05-04 20:26 19.79313 -79.39844 27044 ft 442 kts 134°
2026-05-04 20:26 19.77230 -79.37444 27044 ft 442 kts 134°
2026-05-04 20:26 19.75153 -79.35046 27045 ft 441 kts 134°
2026-05-04 20:26 19.73071 -79.32645 27044 ft 441 kts 134°
2026-05-04 20:27 19.70991 -79.30248 27045 ft 441 kts 134°
2026-05-04 20:27 19.68911 -79.27853 27046 ft 441 kts 134°
2026-05-04 20:27 19.66856 -79.25488 27046 ft 441 kts 134°
2026-05-04 20:27 19.64777 -79.23090 27044 ft 441 kts 134°
2026-05-04 20:28 19.62700 -79.20695 27042 ft 440 kts 134°
2026-05-04 20:28 19.60623 -79.18308 27040 ft 440 kts 134°
2026-05-04 20:28 19.58547 -79.15928 27035 ft 440 kts 135°
2026-05-04 20:28 19.56471 -79.13546 27036 ft 440 kts 134°
2026-05-04 20:29 19.54396 -79.11163 27036 ft 439 kts 134°
2026-05-04 20:29 19.52318 -79.08772 27035 ft 439 kts 134°
2026-05-04 20:29 19.50247 -79.06388 27033 ft 439 kts 134°
2026-05-04 20:29 19.48177 -79.04006 27032 ft 439 kts 135°
2026-05-04 20:30 19.46129 -79.01657 27031 ft 438 kts 135°
2026-05-04 20:30 19.44058 -78.99287 27030 ft 438 kts 135°
2026-05-04 20:30 19.41984 -78.96913 27029 ft 438 kts 135°
2026-05-04 20:30 19.39930 -78.94564 26831 ft 431 kts 135°
2026-05-04 20:31 19.37919 -78.92259 26580 ft 422 kts 134°
2026-05-04 20:31 19.35935 -78.89983 26329 ft 418 kts 134°
2026-05-04 20:31 19.33968 -78.87726 26080 ft 416 kts 134°
2026-05-04 20:31 19.32007 -78.85479 25829 ft 414 kts 134°
2026-05-04 20:32 19.30064 -78.83253 25555 ft 408 kts 134°
2026-05-04 20:32 19.28145 -78.81054 25115 ft 405 kts 134°
2026-05-04 20:32 19.26235 -78.78868 24662 ft 403 kts 133°
2026-05-04 20:32 19.24335 -78.76695 24216 ft 401 kts 133°
2026-05-04 20:33 19.22443 -78.74530 23759 ft 399 kts 133°
2026-05-04 20:33 19.20562 -78.72377 23303 ft 397 kts 133°
2026-05-04 20:33 19.18694 -78.70242 22838 ft 395 kts 133°
2026-05-04 20:33 19.16827 -78.68111 22367 ft 393 kts 133°
2026-05-04 20:34 19.14976 -78.65995 21903 ft 391 kts 133°
2026-05-04 20:34 19.13129 -78.63884 21432 ft 389 kts 133°
2026-05-04 20:34 19.11295 -78.61789 20949 ft 387 kts 134°
2026-05-04 20:34 19.09466 -78.59704 20462 ft 385 kts 134°
2026-05-04 20:35 19.07670 -78.57660 19994 ft 383 kts 134°
2026-05-04 20:35 19.05868 -78.55603 19522 ft 380 kts 134°
2026-05-04 20:35 19.04077 -78.53561 19046 ft 378 kts 134°
2026-05-04 20:35 19.02293 -78.51529 18574 ft 376 kts 134°
2026-05-04 20:36 19.00518 -78.49510 18105 ft 373 kts 134°
2026-05-04 20:36 18.98758 -78.47506 17633 ft 371 kts 134°
2026-05-04 20:36 18.97575 -78.46158 17321 ft 370 kts 134°
2026-05-04 20:36 18.95833 -78.44173 16862 ft 367 kts 134°
2026-05-04 20:37 18.94105 -78.42204 16427 ft 363 kts 134°
2026-05-04 20:37 18.92393 -78.40255 15981 ft 360 kts 134°
2026-05-04 20:37 18.90694 -78.38324 15525 ft 358 kts 134°
2026-05-04 20:37 18.89028 -78.36430 15079 ft 355 kts 134°
2026-05-04 20:38 18.87352 -78.34524 14633 ft 353 kts 134°
2026-05-04 20:38 18.85686 -78.32633 14182 ft 350 kts 134°
2026-05-04 20:38 18.84033 -78.30758 13744 ft 348 kts 134°
2026-05-04 20:38 18.82391 -78.28901 13303 ft 345 kts 134°
2026-05-04 20:39 18.80757 -78.27053 12866 ft 343 kts 134°
2026-05-04 20:39 18.79136 -78.25219 12440 ft 340 kts 133°
2026-05-04 20:39 18.77525 -78.23394 12001 ft 337 kts 133°
2026-05-04 20:39 18.75931 -78.21590 11577 ft 335 kts 133°
2026-05-04 20:40 18.74344 -78.19797 11149 ft 333 kts 133°
2026-05-04 20:40 18.72792 -78.18042 10737 ft 329 kts 133°
2026-05-04 20:40 18.71269 -78.16313 10320 ft 315 kts 133°
2026-05-04 20:40 18.69809 -78.14655 9929 ft 302 kts 133°
2026-05-04 20:41 18.68400 -78.13061 9552 ft 291 kts 132°
2026-05-04 20:41 18.67014 -78.11499 9394 ft 294 kts 132°
2026-05-04 20:41 18.65420 -78.10168 8756 ft 295 kts 156°
2026-05-04 20:41 18.63418 -78.09875 8199 ft 293 kts 189°
2026-05-04 20:42 18.61592 -78.10752 7776 ft 291 kts 218°
2026-05-04 20:42 18.60069 -78.12159 7252 ft 290 kts 220°
2026-05-04 20:42 18.58447 -78.13397 6714 ft 286 kts 209°
2026-05-04 20:42 18.56642 -78.14252 6188 ft 283 kts 198°
2026-05-04 20:43 18.54747 -78.14775 5659 ft 278 kts 190°
2026-05-04 20:43 18.52845 -78.15076 5156 ft 275 kts 185°
2026-05-04 20:43 18.50948 -78.15211 4630 ft 271 kts 180°
2026-05-04 20:43 18.49078 -78.15161 4077 ft 268 kts 171°
2026-05-04 20:44 18.47322 -78.14619 3754 ft 254 kts 153°
2026-05-04 20:44 18.45909 -78.13671 3724 ft 230 kts 139°
2026-05-04 20:44 18.44866 -78.12512 3650 ft 209 kts 126°
2026-05-04 20:44 18.44154 -78.11240 3543 ft 195 kts 114°
2026-05-04 20:45 18.43743 -78.09954 3400 ft 181 kts 104°
2026-05-04 20:45 18.43585 -78.08686 3218 ft 169 kts 94°
2026-05-04 20:45 18.43643 -78.07484 3069 ft 158 kts 84°
2026-05-04 20:45 18.43869 -78.06398 2870 ft 148 kts 76°
2026-05-04 20:46 18.44233 -78.05403 2681 ft 144 kts 68°
2026-05-04 20:46 18.44649 -78.04451 2485 ft 142 kts 68°
2026-05-04 20:46 18.45060 -78.03509 2309 ft 141 kts 67°
2026-05-04 20:46 18.45469 -78.02572 2119 ft 140 kts 66°
2026-05-04 20:47 18.45875 -78.01643 1930 ft 139 kts 66°
2026-05-04 20:47 18.46278 -78.00719 1750 ft 139 kts 66°
2026-05-04 20:47 18.46680 -77.99797 1566 ft 139 kts 65°
2026-05-04 20:47 18.47081 -77.98878 1380 ft 138 kts 65°
2026-05-04 20:48 18.47478 -77.97967 1197 ft 136 kts 64°
2026-05-04 20:48 18.47874 -77.97059 1015 ft 136 kts 64°
2026-05-04 20:48 18.48264 -77.96166 838 ft 136 kts 64°
2026-05-04 20:48 18.48658 -77.95262 657 ft 136 kts 64°
2026-05-04 20:49 18.49053 -77.94357 475 ft 136 kts 64°
2026-05-04 20:49 18.49448 -77.93450 298 ft 137 kts 64°
2026-05-04 20:49 18.49839 -77.92554 112 ft 137 kts 64°
2026-05-04 20:49 18.50230 -77.91660 17 ft 126 kts 65°
2026-05-04 20:50 18.50541 -77.90937 14 ft 91 kts 65°
2026-05-04 20:50 18.50758 -77.90438 10 ft 62 kts 65°
2026-05-04 20:50 18.50821 -77.90195 10 ft 19 kts 122°
2026-05-04 20:50 18.50770 -77.90185 10 ft 6 kts 205°
2026-05-04 20:51 18.50729 -77.90205 11 ft 8 kts 205°
2026-05-04 20:51 18.50674 -77.90230 11 ft 10 kts 204°
2026-05-04 20:51 18.50631 -77.90293 10 ft 12 kts 245°
2026-05-04 20:51 18.50594 -77.90379 11 ft 14 kts 245°
2026-05-04 20:52 18.50551 -77.90480 11 ft 16 kts 245°
2026-05-04 20:52 18.50500 -77.90595 12 ft 19 kts 245°
2026-05-04 20:52 18.50442 -77.90727 12 ft 21 kts 247°
2026-05-04 20:52 18.50380 -77.90876 12 ft 23 kts 246°
2026-05-04 20:53 18.50309 -77.91039 10 ft 26 kts 245°
2026-05-04 20:53 18.50232 -77.91221 10 ft 28 kts 246°
2026-05-04 20:53 18.50147 -77.91418 10 ft 30 kts 246°
2026-05-04 20:53 18.50077 -77.91577 11 ft 16 kts 245°
2026-05-04 20:54 18.50026 -77.91604 10 ft 8 kts 182°
2026-05-04 20:54 18.49987 -77.91618 11 ft 5 kts 207°
2026-05-04 20:54 18.49978 -77.91622 10 ft 0 kts 205°